"Sample Date","Sample Time","Sample Value","Units","Flow Rate","Sample Interval","Number Channels","Micron Size 0","Counts/Channel 0","Micron Size 1","Counts/Channel 1","Micron Size 2","Counts/Channel 2","Micron Size 3","Counts/Channel 3","Micron Size 4","Counts/Channel 4","Micron Size 5","Counts/Channel 5","Micron Size 6","Counts/Channel 6","Micron Size 7","Counts/Channel 7","Micron Size 8","Counts/Channel 8","Micron Size 9","Counts/Channel 9","Micron Size 10","Counts/Channel 10","Micron Size 11","Counts/Channel 11","Micron Size 12","Counts/Channel 12","Micron Size 13","Counts/Channel 13","Micron Size 14","Counts/Channel 14","Micron Size 15","Counts/Channel 15","Micron Size 16","Counts/Channel 16","Micron Size 17","Counts/Channel 17","Micron Size 18","Counts/Channel 18","Micron Size 19","Counts/Channel 19","Micron Size 20","Counts/Channel 20","Micron Size 21","Counts/Channel 21","Micron Size 22","Counts/Channel 22","Micron Size 23","Counts/Channel 23","Micron Size 24","Counts/Channel 24","Micron Size 25","Counts/Channel 25","Micron Size 26","Counts/Channel 26","Micron Size 27","Counts/Channel 27","Micron Size 28","Counts/Channel 28","Micron Size 29","Counts/Channel 29","Micron Size 30","Counts/Channel 30","Micron Size 31","Counts/Channel 31"
"04/05/08","08:00:00",3393.000,"cc",28378.877,6.00,6,0.100,3335.000,0.200,56.000,0.300,2.000,0.500,0,1.000,0,5.000,0
"04/05/08","08:00:06",3459.000,"cc",28249.420,6.00,6,0.100,3377.000,0.200,79.000,0.300,3.000,0.500,0,1.000,0,5.000,0
"04/05/08","08:00:12",3227.000,"cc",28260.463,6.00,6,0.100,3145.000,0.200,81.000,0.300,1.000,0.500,0,1.000,0,5.000,0
"04/05/08","08:00:18",2984.000,"cc",28336.500,6.00,6,0.100,2899.000,0.200,85.000,0.300,0,0.500,0,1.000,0,5.000,0
"04/05/08","08:00:24",3145.000,"cc",28368.756,6.00,6,0.100,3054.000,0.200,89.000,0.300,2.000,0.500,0,1.000,0,5.000,0
"04/05/08","08:00:30",3381.000,"cc",28310.731,6.00,6,0.100,3319.000,0.200,61.000,0.300,1.000,0.500,0,1.000,0,5.000,0
"04/05/08","08:00:36",3202.000,"cc",28283.691,6.00,6,0.100,3137.000,0.200,65.000,0.300,0,0.500,0,1.000,0,5.000,0
"04/05/08","08:00:42",2787.000,"cc",28347.311,6.00,6,0.100,2732.000,0.200,54.000,0.300,1.000,0.500,0,1.000,0,5.000,0
"04/05/08","08:00:48",3178.000,"cc",28340.379,6.00,6,0.100,3096.000,0.200,79.000,0.300,2.000,0.500,1.000,1.000,0,5.000,0
"04/05/08","08:00:54",3035.000,"cc",28337.574,6.00,6,0.100,2968.000,0.200,65.000,0.300,2.000,0.500,0,1.000,0,5.000,0
"04/05/08","08:01:00",2837.000,"cc",28332.477,6.00,6,0.100,2785.000,0.200,52.000,0.300,0,0.500,0,1.000,0,5.000,0
"04/05/08","08:01:06",2764.000,"cc",28288.051,6.00,6,0.100,2728.000,0.200,35.000,0.300,1.000,0.500,0,1.000,0,5.000,0
"04/05/08","08:01:12",2880.000,"cc",28296.914,6.00,6,0.100,2823.000,0.200,57.000,0.300,0,0.500,0,1.000,0,5.000,0
"04/05/08","08:01:18",2978.000,"cc",28336.522,6.00,6,0.100,2920.000,0.200,58.000,0.300,0,0.500,0,1.000,0,5.000,0
"04/05/08","08:01:24",3252.000,"cc",28310.176,6.00,6,0.100,3181.000,0.200,71.000,0.300,0,0.500,0,1.000,0,5.000,0
"04/05/08","08:01:30",3181.000,"cc",28330.008,6.00,6,0.100,3114.000,0.200,65.000,0.300,2.000,0.500,0,1.000,0,5.000,0
"04/05/08","08:01:36",3157.000,"cc",28264.356,6.00,6,0.100,3101.000,0.200,55.000,0.300,0,0.500,0,1.000,1.000,5.000,0
"04/05/08","08:01:42",3271.000,"cc",28359.213,6.00,6,0.100,3205.000,0.200,65.000,0.300,1.000,0.500,0,1.000,0,5.000,0
"04/05/08","08:01:48",3007.000,"cc",28337.383,6.00,6,0.100,2952.000,0.200,55.000,0.300,0,0.500,0,1.000,0,5.000,0
"04/05/08","08:01:54",3239.000,"cc",28283.295,6.00,6,0.100,3187.000,0.200,52.000,0.300,0,0.500,0,1.000,0,5.000,0
"04/05/08","08:02:00",3276.000,"cc",28295.701,6.00,6,0.100,3215.000,0.200,56.000,0.300,4.000,0.500,1.000,1.000,0,5.000,0
"04/05/08","08:02:06",3342.000,"cc",28295.537,6.00,6,0.100,3273.000,0.200,67.000,0.300,2.000,0.500,0,1.000,0,5.000,0
"04/05/08","08:02:12",3565.000,"cc",28347.068,6.00,6,0.100,3504.000,0.200,61.000,0.300,0,0.500,0,1.000,0,5.000,0
"04/05/08","08:02:18",3209.000,"cc",28320.479,6.00,6,0.100,3171.000,0.200,38.000,0.300,0,0.500,0,1.000,0,5.000,0
"04/05/08","08:02:24",2974.000,"cc",28357.602,6.00,6,0.100,2944.000,0.200,29.000,0.300,0,0.500,1.000,1.000,0,5.000,0
"04/05/08","08:02:30",3337.000,"cc",28278.543,6.00,6,0.100,3317.000,0.200,20.000,0.300,0,0.500,0,1.000,0,5.000,0
"04/05/08","08:02:36",3102.000,"cc",28344.635,6.00,6,0.100,3079.000,0.200,23.000,0.300,0,0.500,0,1.000,0,5.000,0
"04/05/08","08:02:42",2551.000,"cc",28360.102,6.00,6,0.100,2519.000,0.200,32.000,0.300,0,0.500,0,1.000,0,5.000,0
"04/05/08","08:02:48",2642.000,"cc",28305.455,6.00,6,0.100,2626.000,0.200,16.000,0.300,0,0.500,0,1.000,0,5.000,0
"04/05/08","08:02:54",2815.000,"cc",28268.856,6.00,6,0.100,2789.000,0.200,26.000,0.300,0,0.500,0,1.000,0,5.000,0
"04/05/08","08:03:00",3616.000,"cc",28341.354,6.00,6,0.100,3584.000,0.200,32.000,0.300,0,0.500,0,1.000,0,5.000,0
"04/05/08","08:03:06",3844.000,"cc",28297.713,6.00,6,0.100,3790.000,0.200,54.000,0.300,0,0.500,0,1.000,0,5.000,0
"04/05/08","08:03:12",4008.000,"cc",28297.852,6.00,6,0.100,3963.000,0.200,45.000,0.300,0,0.500,0,1.000,0,5.000,0
"04/05/08","08:03:18",4221.000,"cc",28313.055,6.00,6,0.100,4150.000,0.200,70.000,0.300,1.000,0.500,0,1.000,0,5.000,0
"04/05/08","08:03:24",4429.000,"cc",28337.914,6.00,6,0.100,4342.000,0.200,87.000,0.300,0,0.500,0,1.000,0,5.000,0
"04/05/08","08:03:30",4203.000,"cc",28304.984,6.00,6,0.100,4142.000,0.200,61.000,0.300,0,0.500,0,1.000,0,5.000,0
"04/05/08","08:03:36",4402.000,"cc",28321.090,6.00,6,0.100,4311.000,0.200,90.000,0.300,1.000,0.500,0,1.000,0,5.000,0
"04/05/08","08:03:42",4160.000,"cc",28299.643,6.00,6,0.100,4095.000,0.200,65.000,0.300,0,0.500,0,1.000,0,5.000,0
"04/05/08","08:03:48",4218.000,"cc",28354.234,6.00,6,0.100,4139.000,0.200,79.000,0.300,0,0.500,0,1.000,0,5.000,0
"04/05/08","08:03:54",4015.000,"cc",28351.459,6.00,6,0.100,3934.000,0.200,80.000,0.300,1.000,0.500,0,1.000,0,5.000,0
"04/05/08","08:04:00",4062.000,"cc",28314.604,6.00,6,0.100,3987.000,0.200,73.000,0.300,2.000,0.500,0,1.000,0,5.000,0
"04/05/08","08:04:06",4073.000,"cc",28281.273,6.00,6,0.100,3995.000,0.200,78.000,0.300,0,0.500,0,1.000,0,5.000,0
"04/05/08","08:04:12",4200.000,"cc",28262.320,6.00,6,0.100,4098.000,0.200,102.000,0.300,0,0.500,0,1.000,0,5.000,0
"04/05/08","08:04:18",4103.000,"cc",28346.500,6.00,6,0.100,4048.000,0.200,53.000,0.300,2.000,0.500,0,1.000,0,5.000,0
"04/05/08","08:04:24",4030.000,"cc",28296.895,6.00,6,0.100,3954.000,0.200,76.000,0.300,0,0.500,0,1.000,0,5.000,0
"04/05/08","08:04:30",3796.000,"cc",28289.773,6.00,6,0.100,3720.000,0.200,75.000,0.300,0,0.500,1.000,1.000,0,5.000,0
"04/05/08","08:04:36",3741.000,"cc",28323.002,6.00,6,0.100,3678.000,0.200,62.000,0.300,1.000,0.500,0,1.000,0,5.000,0
"04/05/08","08:04:42",3661.000,"cc",28284.252,6.00,6,0.100,3577.000,0.200,73.000,0.300,9.000,0.500,2.000,1.000,0,5.000,0
"04/05/08","08:04:48",3523.000,"cc",28371.344,6.00,6,0.100,3458.000,0.200,63.000,0.300,1.000,0.500,1.000,1.000,0,5.000,0
"04/05/08","08:04:54",3833.000,"cc",28364.438,6.00,6,0.100,3750.000,0.200,80.000,0.300,2.000,0.500,1.000,1.000,0,5.000,0
"04/05/08","08:05:00",3594.000,"cc",28284.668,6.00,6,0.100,3518.000,0.200,74.000,0.300,2.000,0.500,0,1.000,0,5.000,0
"04/05/08","08:05:06",3722.000,"cc",28340.211,6.00,6,0.100,3647.000,0.200,72.000,0.300,2.000,0.500,1.000,1.000,0,5.000,0
"04/05/08","08:05:12",3550.000,"cc",28283.209,6.00,6,0.100,3476.000,0.200,72.000,0.300,2.000,0.500,0,1.000,0,5.000,0
"04/05/08","08:05:18",4040.000,"cc",28320.164,6.00,6,0.100,3967.000,0.200,72.000,0.300,1.000,0.500,0,1.000,0,5.000,0
"04/05/08","08:05:24",3464.000,"cc",28330.229,6.00,6,0.100,3399.000,0.200,65.000,0.300,0,0.500,0,1.000,0,5.000,0
"04/05/08","08:05:30",3775.000,"cc",28317.621,6.00,6,0.100,3689.000,0.200,83.000,0.300,3.000,0.500,0,1.000,0,5.000,0
"04/05/08","08:05:36",3670.000,"cc",28326.869,6.00,6,0.100,3588.000,0.200,82.000,0.300,0,0.500,0,1.000,0,5.000,0
"04/05/08","08:05:42",3400.000,"cc",28323.902,6.00,6,0.100,3326.000,0.200,73.000,0.300,0,0.500,1.000,1.000,0,5.000,0
"04/05/08","08:05:48",3535.000,"cc",28313.063,6.00,6,0.100,3456.000,0.200,79.000,0.300,0,0.500,0,1.000,0,5.000,0
"04/05/08","08:05:54",3437.000,"cc",28280.531,6.00,6,0.100,3370.000,0.200,66.000,0.300,1.000,0.500,0,1.000,0,5.000,0
"04/05/08","08:06:00",3664.000,"cc",28359.844,6.00,6,0.100,3598.000,0.200,66.000,0.300,0,0.500,0,1.000,0,5.000,0
"04/05/08","08:06:06",3642.000,"cc",28330.531,6.00,6,0.100,3569.000,0.200,72.000,0.300,1.000,0.500,0,1.000,0,5.000,0
"04/05/08","08:06:12",3397.000,"cc",28288.623,6.00,6,0.100,3324.000,0.200,72.000,0.300,1.000,0.500,0,1.000,0,5.000,0
"04/05/08","08:06:18",3771.000,"cc",28278.904,6.00,6,0.100,3695.000,0.200,75.000,0.300,1.000,0.500,0,1.000,0,5.000,0
"04/05/08","08:06:24",3509.000,"cc",28343.150,6.00,6,0.100,3433.000,0.200,74.000,0.300,2.000,0.500,0,1.000,0,5.000,0
"04/05/08","08:06:30",3552.000,"cc",28284.531,6.00,6,0.100,3489.000,0.200,59.000,0.300,4.000,0.500,0,1.000,0,5.000,0
"04/05/08","08:06:36",3623.000,"cc",28306.815,6.00,6,0.100,3539.000,0.200,81.000,0.300,3.000,0.500,0,1.000,0,5.000,0
"04/05/08","08:06:42",3611.000,"cc",28308.764,6.00,6,0.100,3527.000,0.200,84.000,0.300,0,0.500,0,1.000,0,5.000,0
"04/05/08","08:06:48",3739.000,"cc",28324.018,6.00,6,0.100,3651.000,0.200,86.000,0.300,2.000,0.500,0,1.000,0,5.000,0
"04/05/08","08:06:54",3718.000,"cc",28325.479,6.00,6,0.100,3649.000,0.200,68.000,0.300,1.000,0.500,0,1.000,0,5.000,0
"04/05/08","08:07:00",3568.000,"cc",28339.691,6.00,6,0.100,3503.000,0.200,64.000,0.300,1.000,0.500,0,1.000,0,5.000,0
"04/05/08","08:07:06",3814.000,"cc",28312.289,6.00,6,0.100,3733.000,0.200,81.000,0.300,0,0.500,0,1.000,0,5.000,0
"04/05/08","08:07:12",3575.000,"cc",28321.658,6.00,6,0.100,3500.000,0.200,75.000,0.300,0,0.500,0,1.000,0,5.000,0
"04/05/08","08:07:18",3384.000,"cc",28385.096,6.00,6,0.100,3317.000,0.200,66.000,0.300,1.000,0.500,0,1.000,0,5.000,0
"04/05/08","08:07:24",3206.000,"cc",28304.920,6.00,6,0.100,3144.000,0.200,62.000,0.300,0,0.500,0,1.000,0,5.000,0
"04/05/08","08:07:30",2599.000,"cc",28285.033,6.00,6,0.100,2550.000,0.200,49.000,0.300,0,0.500,0,1.000,0,5.000,0
"04/05/08","08:07:36",2945.000,"cc",28295.943,6.00,6,0.100,2885.000,0.200,58.000,0.300,2.000,0.500,0,1.000,0,5.000,0
"04/05/08","08:07:42",3049.000,"cc",28316.803,6.00,6,0.100,3001.000,0.200,48.000,0.300,0,0.500,0,1.000,0,5.000,0
"04/05/08","08:07:48",3421.000,"cc",28327.773,6.00,6,0.100,3348.000,0.200,71.000,0.300,2.000,0.500,0,1.000,0,5.000,0
"04/05/08","08:07:54",3090.000,"cc",28253.375,6.00,6,0.100,3038.000,0.200,52.000,0.300,0,0.500,0,1.000,0,5.000,0
"04/05/08","08:08:00",3241.000,"cc",28300.955,6.00,6,0.100,3166.000,0.200,73.000,0.300,2.000,0.500,0,1.000,0,5.000,0
"04/05/08","08:08:06",3337.000,"cc",28328.404,6.00,6,0.100,3282.000,0.200,55.000,0.300,0,0.500,0,1.000,0,5.000,0
"04/05/08","08:08:12",2663.000,"cc",28352.432,6.00,6,0.100,2624.000,0.200,39.000,0.300,0,0.500,0,1.000,0,5.000,0
"04/05/08","08:08:18",2886.000,"cc",28332.676,6.00,6,0.100,2839.000,0.200,46.000,0.300,1.000,0.500,0,1.000,0,5.000,0
"04/05/08","08:08:24",2586.000,"cc",28304.418,6.00,6,0.100,2559.000,0.200,27.000,0.300,0,0.500,0,1.000,0,5.000,0
"04/05/08","08:08:30",2656.000,"cc",28260.736,6.00,6,0.100,2625.000,0.200,30.000,0.300,1.000,0.500,0,1.000,0,5.000,0
"04/05/08","08:08:36",2809.000,"cc",28321.801,6.00,6,0.100,2782.000,0.200,26.000,0.300,1.000,0.500,0,1.000,0,5.000,0
"04/05/08","08:08:42",3264.000,"cc",28406.738,6.00,6,0.100,3218.000,0.200,46.000,0.300,0,0.500,0,1.000,0,5.000,0
"04/05/08","08:08:48",3291.000,"cc",28344.852,6.00,6,0.100,3239.000,0.200,52.000,0.300,0,0.500,0,1.000,0,5.000,0
"04/05/08","08:08:54",3653.000,"cc",28303.475,6.00,6,0.100,3607.000,0.200,45.000,0.300,1.000,0.500,0,1.000,0,5.000,0
"04/05/08","08:09:00",2765.000,"cc",28287.022,6.00,6,0.100,2723.000,0.200,42.000,0.300,0,0.500,0,1.000,0,5.000,0
"04/05/08","08:09:06",2761.000,"cc",28317.908,6.00,6,0.100,2708.000,0.200,53.000,0.300,0,0.500,0,1.000,0,5.000,0
"04/05/08","08:09:12",1901.000,"cc",28285.506,6.00,6,0.100,1887.000,0.200,12.000,0.300,1.000,0.500,1.000,1.000,0,5.000,0
"04/05/08","08:09:18",2261.000,"cc",28291.201,6.00,6,0.100,2229.000,0.200,31.000,0.300,0,0.500,1.000,1.000,0,5.000,0
"04/05/08","08:09:24",2463.000,"cc",28367.090,6.00,6,0.100,2425.000,0.200,36.000,0.300,1.000,0.500,1.000,1.000,0,5.000,0
"04/05/08","08:09:30",2676.000,"cc",28302.953,6.00,6,0.100,2630.000,0.200,45.000,0.300,1.000,0.500,0,1.000,0,5.000,0
"04/05/08","08:09:36",2850.000,"cc",28342.938,6.00,6,0.100,2795.000,0.200,53.000,0.300,1.000,0.500,1.000,1.000,0,5.000,0
"04/05/08","08:09:42",2659.000,"cc",28319.625,6.00,6,0.100,2601.000,0.200,57.000,0.300,1.000,0.500,0,1.000,0,5.000,0
"04/05/08","08:09:48",2443.000,"cc",28269.303,6.00,6,0.100,2374.000,0.200,68.000,0.300,1.000,0.500,0,1.000,0,5.000,0
"04/05/08","08:09:54",2448.000,"cc",28326.563,6.00,6,0.100,2397.000,0.200,49.000,0.300,1.000,0.500,0,1.000,1.000,5.000,0
"04/05/08","08:10:00",2303.000,"cc",28321.715,6.00,6,0.100,2264.000,0.200,39.000,0.300,0,0.500,0,1.000,0,5.000,0
"04/05/08","08:10:06",2788.000,"cc",28332.086,6.00,6,0.100,2708.000,0.200,80.000,0.300,0,0.500,0,1.000,0,5.000,0
"04/05/08","08:10:12",3158.000,"cc",28350.338,6.00,6,0.100,3070.000,0.200,87.000,0.300,1.000,0.500,0,1.000,0,5.000,0
"04/05/08","08:10:18",3077.000,"cc",28331.156,6.00,6,0.100,2999.000,0.200,77.000,0.300,1.000,0.500,0,1.000,0,5.000,0
"04/05/08","08:10:24",3159.000,"cc",28278.258,6.00,6,0.100,3100.000,0.200,54.000,0.300,4.000,0.500,1.000,1.000,0,5.000,0
"04/05/08","08:10:30",2912.000,"cc",28358.588,6.00,6,0.100,2852.000,0.200,60.000,0.300,0,0.500,0,1.000,0,5.000,0
"04/05/08","08:10:36",3531.000,"cc",28253.623,6.00,6,0.100,3450.000,0.200,80.000,0.300,1.000,0.500,0,1.000,0,5.000,0
"04/05/08","08:10:42",3388.000,"cc",28338.086,6.00,6,0.100,3328.000,0.200,59.000,0.300,1.000,0.500,0,1.000,0,5.000,0
"04/05/08","08:10:48",3698.000,"cc",28383.627,6.00,6,0.100,3641.000,0.200,55.000,0.300,2.000,0.500,0,1.000,0,5.000,0
"04/05/08","08:10:54",3917.000,"cc",28301.061,6.00,6,0.100,3861.000,0.200,55.000,0.300,1.000,0.500,0,1.000,0,5.000,0
"04/05/08","08:11:00",3842.000,"cc",28295.537,6.00,6,0.100,3776.000,0.200,61.000,0.300,5.000,0.500,0,1.000,0,5.000,0
"04/05/08","08:11:06",3955.000,"cc",28356.746,6.00,6,0.100,3886.000,0.200,69.000,0.300,0,0.500,0,1.000,0,5.000,0
"04/05/08","08:11:12",3593.000,"cc",28294.672,6.00,6,0.100,3563.000,0.200,30.000,0.300,0,0.500,0,1.000,0,5.000,0
"04/05/08","08:11:18",3776.000,"cc",28270.668,6.00,6,0.100,3744.000,0.200,31.000,0.300,1.000,0.500,0,1.000,0,5.000,0
"04/05/08","08:11:24",2916.000,"cc",28315.180,6.00,6,0.100,2903.000,0.200,13.000,0.300,0,0.500,0,1.000,0,5.000,0
"04/05/08","08:11:30",3616.000,"cc",28357.051,6.00,6,0.100,3585.000,0.200,31.000,0.300,0,0.500,0,1.000,0,5.000,0
"04/05/08","08:11:36",2930.000,"cc",28337.039,6.00,6,0.100,2913.000,0.200,16.000,0.300,1.000,0.500,0,1.000,0,5.000,0
"04/05/08","08:11:42",3634.000,"cc",28269.029,6.00,6,0.100,3611.000,0.200,23.000,0.300,0,0.500,0,1.000,0,5.000,0
"04/05/08","08:11:48",3020.000,"cc",28284.008,6.00,6,0.100,2980.000,0.200,40.000,0.300,0,0.500,0,1.000,0,5.000,0
"04/05/08","08:11:54",3315.000,"cc",28321.412,6.00,6,0.100,3272.000,0.200,43.000,0.300,0,0.500,0,1.000,0,5.000,0
"04/05/08","08:12:00",3867.000,"cc",28331.049,6.00,6,0.100,3805.000,0.200,60.000,0.300,2.000,0.500,0,1.000,0,5.000,0
"04/05/08","08:12:06",2166.000,"cc",28282.275,6.00,6,0.100,2154.000,0.200,12.000,0.300,0,0.500,0,1.000,0,5.000,0
"04/05/08","08:12:12",3169.000,"cc",28311.098,6.00,6,0.100,3095.000,0.200,74.000,0.300,0,0.500,0,1.000,0,5.000,0
"04/05/08","08:12:18",2290.000,"cc",28316.568,6.00,6,0.100,2252.000,0.200,36.000,0.300,2.000,0.500,0,1.000,0,5.000,0
"04/05/08","08:12:24",2741.000,"cc",28318.660,6.00,6,0.100,2681.000,0.200,59.000,0.300,0,0.500,1.000,1.000,0,5.000,0
"04/05/08","08:12:30",2081.000,"cc",28335.795,6.00,6,0.100,2055.000,0.200,26.000,0.300,0,0.500,0,1.000,0,5.000,0
"04/05/08","08:12:36",2813.000,"cc",28382.563,6.00,6,0.100,2745.000,0.200,68.000,0.300,0,0.500,0,1.000,0,5.000,0
"04/05/08","08:12:42",2767.000,"cc",28339.723,6.00,6,0.100,2691.000,0.200,70.000,0.300,6.000,0.500,0,1.000,0,5.000,0
"04/05/08","08:12:48",2839.000,"cc",28279.301,6.00,6,0.100,2754.000,0.200,84.000,0.300,1.000,0.500,0,1.000,0,5.000,0
"04/05/08","08:12:54",2660.000,"cc",28317.340,6.00,6,0.100,2595.000,0.200,63.000,0.300,2.000,0.500,0,1.000,0,5.000,0
"04/05/08","08:13:00",2324.000,"cc",28378.279,6.00,6,0.100,2278.000,0.200,45.000,0.300,1.000,0.500,0,1.000,0,5.000,0
"04/05/08","08:13:06",2319.000,"cc",28254.346,6.00,6,0.100,2273.000,0.200,46.000,0.300,0,0.500,0,1.000,0,5.000,0
"04/05/08","08:13:12",2236.000,"cc",28254.344,6.00,6,0.100,2197.000,0.200,36.000,0.300,3.000,0.500,0,1.000,0,5.000,0
"04/05/08","08:13:18",2009.000,"cc",28326.094,6.00,6,0.100,1968.000,0.200,40.000,0.300,1.000,0.500,0,1.000,0,5.000,0
"04/05/08","08:13:24",2006.000,"cc",28364.598,6.00,6,0.100,1968.000,0.200,35.000,0.300,2.000,0.500,0,1.000,1.000,5.000,0
"04/05/08","08:13:30",1998.000,"cc",28334.115,6.00,6,0.100,1954.000,0.200,42.000,0.300,2.000,0.500,0,1.000,0,5.000,0
"04/05/08","08:13:36",1787.000,"cc",28309.467,6.00,6,0.100,1753.000,0.200,33.000,0.300,1.000,0.500,0,1.000,0,5.000,0
"04/05/08","08:13:42",1813.000,"cc",28353.172,6.00,6,0.100,1780.000,0.200,31.000,0.300,2.000,0.500,0,1.000,0,5.000,0
"04/05/08","08:13:48",1849.000,"cc",28247.432,6.00,6,0.100,1807.000,0.200,42.000,0.300,0,0.500,0,1.000,0,5.000,0
"04/05/08","08:13:54",1997.000,"cc",28364.568,6.00,6,0.100,1956.000,0.200,38.000,0.300,3.000,0.500,0,1.000,0,5.000,0
"04/05/08","08:14:00",1580.000,"cc",28333.936,6.00,6,0.100,1556.000,0.200,24.000,0.300,0,0.500,0,1.000,0,5.000,0
"04/05/08","08:14:06",1786.000,"cc",28274.625,6.00,6,0.100,1760.000,0.200,25.000,0.300,1.000,0.500,0,1.000,0,5.000,0
"04/05/08","08:14:12",1033.000,"cc",28353.799,6.00,6,0.100,1015.000,0.200,18.000,0.300,0,0.500,0,1.000,0,5.000,0
"04/05/08","08:14:18",2842.000,"cc",28268.100,6.00,6,0.100,2787.000,0.200,52.000,0.300,3.000,0.500,0,1.000,0,5.000,0
"04/05/08","08:14:24",2283.000,"cc",28346.440,6.00,6,0.100,2245.000,0.200,36.000,0.300,1.000,0.500,1.000,1.000,0,5.000,0
"04/05/08","08:14:30",2156.000,"cc",28314.420,6.00,6,0.100,2115.000,0.200,38.000,0.300,1.000,0.500,1.000,1.000,1.000,5.000,0
"04/05/08","08:14:36",2215.000,"cc",28303.842,6.00,6,0.100,2171.000,0.200,44.000,0.300,0,0.500,0,1.000,0,5.000,0
"04/05/08","08:14:42",2051.000,"cc",28275.922,6.00,6,0.100,2025.000,0.200,25.000,0.300,1.000,0.500,0,1.000,0,5.000,0
"04/05/08","08:14:48",2040.000,"cc",28315.340,6.00,6,0.100,2002.000,0.200,36.000,0.300,2.000,0.500,0,1.000,0,5.000,0
"04/05/08","08:14:54",1972.000,"cc",28378.988,6.00,6,0.100,1935.000,0.200,37.000,0.300,0,0.500,0,1.000,0,5.000,0
"04/05/08","08:15:00",2510.000,"cc",28266.928,6.00,6,0.100,2459.000,0.200,49.000,0.300,2.000,0.500,0,1.000,0,5.000,0
"04/05/08","08:15:06",2337.000,"cc",28337.348,6.00,6,0.100,2293.000,0.200,43.000,0.300,0,0.500,0,1.000,1.000,5.000,0
"04/05/08","08:15:12",2188.000,"cc",28314.102,6.00,6,0.100,2133.000,0.200,49.000,0.300,3.000,0.500,1.000,1.000,2.000,5.000,0
"04/05/08","08:15:18",1739.000,"cc",28229.498,6.00,6,0.100,1694.000,0.200,42.000,0.300,3.000,0.500,0,1.000,0,5.000,0
"04/05/08","08:15:24",1869.000,"cc",28323.565,6.00,6,0.100,1841.000,0.200,27.000,0.300,1.000,0.500,0,1.000,0,5.000,0
"04/05/08","08:15:30",946.000,"cc",28343.037,6.00,6,0.100,922.000,0.200,19.000,0.300,3.000,0.500,2.000,1.000,0,5.000,0
"04/05/08","08:15:36",1229.000,"cc",28325.971,6.00,6,0.100,1206.000,0.200,21.000,0.300,2.000,0.500,0,1.000,0,5.000,0
"04/05/08","08:15:42",1173.000,"cc",28358.094,6.00,6,0.100,1151.000,0.200,22.000,0.300,0,0.500,0,1.000,0,5.000,0
"04/05/08","08:15:48",1221.000,"cc",28329.121,6.00,6,0.100,1191.000,0.200,27.000,0.300,2.000,0.500,0,1.000,1.000,5.000,0
"04/05/08","08:15:54",2237.000,"cc",28249.422,6.00,6,0.100,2215.000,0.200,21.000,0.300,0,0.500,1.000,1.000,0,5.000,0
"04/05/08","08:16:00",2765.000,"cc",28347.393,6.00,6,0.100,2714.000,0.200,50.000,0.300,0,0.500,0,1.000,1.000,5.000,0
"04/05/08","08:16:06",3331.000,"cc",28333.647,6.00,6,0.100,3276.000,0.200,54.000,0.300,1.000,0.500,0,1.000,0,5.000,0
"04/05/08","08:16:12",2879.000,"cc",28327.008,6.00,6,0.100,2854.000,0.200,23.000,0.300,2.000,0.500,0,1.000,0,5.000,0
"04/05/08","08:16:18",3447.000,"cc",28305.854,6.00,6,0.100,3414.000,0.200,32.000,0.300,1.000,0.500,0,1.000,0,5.000,0
"04/05/08","08:16:24",3547.000,"cc",28335.652,6.00,6,0.100,3500.000,0.200,46.000,0.300,1.000,0.500,0,1.000,0,5.000,0
"04/05/08","08:16:30",3860.000,"cc",28297.354,6.00,6,0.100,3822.000,0.200,37.000,0.300,1.000,0.500,0,1.000,0,5.000,0
"04/05/08","08:16:36",3727.000,"cc",28319.936,6.00,6,0.100,3678.000,0.200,44.000,0.300,4.000,0.500,1.000,1.000,0,5.000,0
"04/05/08","08:16:42",3423.000,"cc",28334.566,6.00,6,0.100,3375.000,0.200,43.000,0.300,3.000,0.500,2.000,1.000,0,5.000,0
"04/05/08","08:16:48",3046.000,"cc",28310.516,6.00,6,0.100,3014.000,0.200,31.000,0.300,0,0.500,0,1.000,1.000,5.000,0
"04/05/08","08:16:54",3230.000,"cc",28309.117,6.00,6,0.100,3180.000,0.200,49.000,0.300,1.000,0.500,0,1.000,0,5.000,0
"04/05/08","08:17:00",3331.000,"cc",28282.275,6.00,6,0.100,3295.000,0.200,33.000,0.300,3.000,0.500,0,1.000,0,5.000,0
"04/05/08","08:17:06",3425.000,"cc",28312.154,6.00,6,0.100,3369.000,0.200,52.000,0.300,3.000,0.500,0,1.000,1.000,5.000,0
"04/05/08","08:17:12",3562.000,"cc",28310.482,6.00,6,0.100,3513.000,0.200,47.000,0.300,2.000,0.500,0,1.000,0,5.000,0
"04/05/08","08:17:18",3803.000,"cc",28367.703,6.00,6,0.100,3743.000,0.200,60.000,0.300,0,0.500,0,1.000,0,5.000,0
"04/05/08","08:17:24",3320.000,"cc",28322.957,6.00,6,0.100,3299.000,0.200,19.000,0.300,1.000,0.500,1.000,1.000,0,5.000,0
"04/05/08","08:17:30",2980.000,"cc",28277.594,6.00,6,0.100,2954.000,0.200,24.000,0.300,2.000,0.500,0,1.000,0,5.000,0
"04/05/08","08:17:36",3102.000,"cc",28289.121,6.00,6,0.100,3053.000,0.200,47.000,0.300,1.000,0.500,1.000,1.000,0,5.000,0
"04/05/08","08:17:42",3054.000,"cc",28340.424,6.00,6,0.100,3011.000,0.200,40.000,0.300,2.000,0.500,0,1.000,1.000,5.000,0
"04/05/08","08:17:48",2504.000,"cc",28378.676,6.00,6,0.100,2485.000,0.200,18.000,0.300,0,0.500,1.000,1.000,0,5.000,0
"04/05/08","08:17:54",1974.000,"cc",28303.123,6.00,6,0.100,1961.000,0.200,13.000,0.300,0,0.500,0,1.000,0,5.000,0
"04/05/08","08:18:00",2991.000,"cc",28315.893,6.00,6,0.100,2944.000,0.200,47.000,0.300,0,0.500,0,1.000,0,5.000,0
"04/05/08","08:18:06",3089.000,"cc",28252.723,6.00,6,0.100,3042.000,0.200,44.000,0.300,1.000,0.500,1.000,1.000,1.000,5.000,0
"04/05/08","08:18:12",2748.000,"cc",28355.777,6.00,6,0.100,2711.000,0.200,33.000,0.300,4.000,0.500,0,1.000,0,5.000,0
"04/05/08","08:18:18",2929.000,"cc",28378.188,6.00,6,0.100,2895.000,0.200,34.000,0.300,0,0.500,0,1.000,0,5.000,0
"04/05/08","08:18:24",2779.000,"cc",28349.598,6.00,6,0.100,2751.000,0.200,27.000,0.300,0,0.500,1.000,1.000,0,5.000,0
"04/05/08","08:18:30",2667.000,"cc",28227.371,6.00,6,0.100,2645.000,0.200,15.000,0.300,3.000,0.500,1.000,1.000,3.000,5.000,0
"04/05/08","08:18:36",2501.000,"cc",28312.832,6.00,6,0.100,2468.000,0.200,33.000,0.300,0,0.500,0,1.000,0,5.000,0
"04/05/08","08:18:42",2785.000,"cc",28313.129,6.00,6,0.100,2732.000,0.200,50.000,0.300,2.000,0.500,1.000,1.000,0,5.000,0
"04/05/08","08:18:48",1475.000,"cc",28321.813,6.00,6,0.100,1457.000,0.200,18.000,0.300,0,0.500,0,1.000,0,5.000,0
"04/05/08","08:18:54",871.000,"cc",28376.834,6.00,6,0.100,866.000,0.200,5.000,0.300,0,0.500,0,1.000,0,5.000,0
"04/05/08","08:19:00",749.000,"cc",28323.764,6.00,6,0.100,742.000,0.200,7.000,0.300,0,0.500,0,1.000,0,5.000,0
"04/05/08","08:19:06",849.000,"cc",28340.156,6.00,6,0.100,837.000,0.200,11.000,0.300,1.000,0.500,0,1.000,0,5.000,0
"04/05/08","08:19:12",808.000,"cc",28276.697,6.00,6,0.100,804.000,0.200,4.000,0.300,0,0.500,0,1.000,0,5.000,0
"04/05/08","08:19:18",788.000,"cc",28323.326,6.00,6,0.100,780.000,0.200,8.000,0.300,0,0.500,0,1.000,0,5.000,0